SCP
0 0 0 0 0 0 0 0 0 0 0 0 0 0 0 0 0 0 0 0 0 0 0 0 0 0 0 0 0 0 0 0 0 0 0 0 0 0
0 0 0 0 0 0 0 0 0 0 0 0 0 0 0 0 0 0 0 0 0 0 0 0 0 0 0 0 0 0 0 0 0 0 0 0 0 0
0 0 0 0 0 0 0 0 0 0 0 0 0 0 0 0 0 0 0 0 0 0 0 0 0 0 0 0 0 0 0 0 0 0 0 0 0 0
0 0 0 0 0 0 0 0 0 0 0 0 0 0 0 0 0 0 0 0 0 0 0 0 0 0 0 0 0 0 0 0 0 0 0 0 0 0
0 0 0 0 0 0 0 0 0 0 0 0 0 0 0 0 0 0 0 0 0 0 0 0 0 0 0 0 0 0 0 0 0 0 0 0 0 0
0 0 0 0 0 0 0 0 0 0 0 0 0 0 0 0 0 0 0 0 0 0 0 0 0 0 0 0 0 0 0 0 0 0 0 0 0 0
0 0 0 0 0 0 0 0 0 0 0 0 0 0 0 0 0 0 0 0 0 0 0 0 0 0 0 0 0 0 0 0 0 0 0 0 0 0
0 0 0 0 0 0 0 0 0 0 0 0 0 0 0 0 0 0 0 0 0 0 0 0 0 0 0 0 0 0 0 0 0 0 0 0 0 0
0 0 0 0 0 0 0 0 0 0 0 0 0 0 0 0 0 0 0 0 0 0 0 0 0 0 0 0 0 0 0 0 0 0 0 0 0 0
0 0 0 0 0 0 0 0 0 0 0 0 0 0 0 0 0 0 0 0 0 0 0 0 0 0 0 0 0 0 0 0 0 0 0 0 0 0
0 0 0 0 0 0 0 0 0 0 0 0 0 0 0 0 0 0 0 0 0 0 0 0 0 0 0 0 0 0 0 0 0 0 0 0 0 0
0 0 0 0 0 0 0 0 0 0 0 0 0 0 0 0 0 0 0 0 0 0 0 0 0 0 0 0 0 0 0 0 0 0 0 0 0 0
0 0 0 0 0 0 0 0 0 0 0 0 0 0 0 0 0 0 0 0 0 0 0 0 0 0 0 0 0 0 0 0 0 0 0 0 0 0
0 0 0 0 0 0 0 0 0 0 0 0 0 0 0 0 0 0 0 0 0 0 0 0 0 0 0 0 0 0 0 0 0 0 0 0 0 0
0 0 0 0 0 0 0 0 0 0 0 0 0 0 0 0 0 0 0 0 0 0 0 0 0 0 0 0 0 0 0 0 0 0 0 0 0 0
0 0 0 0 0 0 0 0 0 0 0 0 0 0 0 0 0 0 0 0 0 0 0 0 0 0 0 0 0 0 0 0 0 0 0 0 0 0
0 0 0 0 0 0 0 0 0 0 0 0 0 0 0 0 0 0 0 0 0 0 0 0 0 0 0 0 0 0 0 0 0 0 0 0 0 0
0 0 0 0 0 0 0 0 0 0 0 0 -0 -0 -0 -0 -0 0 0 0 0 0 0 0 0 0 0 0 0 0 0 0 0 0 0 0 0 0
0 0 0 0 0 0 0 0 0 0 0 -0 -0 -0 -0 -0 -0 -0 0 0 0 0 0 0 0 0 0 0 0 0 0 0 0 0 0 0 0 0
0 0 0 0 0 0 0 0 0 0 0 -0 -0 -0 -0 -0 -0 0 0 0 0 0 0 0 0 0 0 0 0 0 0 0 0 0 0 0 0 0
0 0 0 0 0 0 0 0 0 0 0 0 0 0 0 0 0 0 0 0 0 0 0 0 0 0 0 0 0 0 0 0 0 0 0 0 0 0
0 0 0 0 0 0 0 0 0 0 0 0 0 0 0 0 0 0 0 0 0 0 0 0 0 0 0 0 0 0 0 0 0 0 0 0 0 0
0 0 0 0 0 0 0 0 0 0 0 0 0 0 0 0 0 0 0 0 0 0 0 0 0 0 0 0 0 0 0 0 0 0 0 0 0 0
Wind_Speed
6 6 4 5 6 6 5 5 5 4 3 2 2 3 3 4 5 6 7 11 11 9 6 5 6 7 8 9 9 8 8 8 7 6 5 5 6 7
3 4 4 4 5 5 5 4 4 4 4 2 2 2 2 5 7 7 8 11 13 11 8 8 9 9 9 9 9 9 9 8 7 6 5 6 7 7
1 2 3 4 4 4 4 4 2 3 7 3 2 1 3 5 6 6 7 7 8 14 13 12 12 11 11 11 11 11 11 11 10 9 8 8 9 9
4 3 4 4 5 5 5 4 3 4 7 7 3 3 5 5 5 6 5 6 7 11 12 11 11 11 10 11 11 11 11 11 11 10 9 9 10 11
7 6 5 6 6 4 5 5 5 5 5 8 5 4 5 5 5 5 5 4 5 6 8 9 9 9 10 10 11 11 11 10 10 9 8 8 8 10
7 6 5 5 5 5 6 7 8 8 8 8 6 4 4 4 4 3 3 3 4 5 5 5 6 7 8 9 10 10 10 11 12 12 11 10 10 10
7 6 5 7 7 6 7 8 8 8 7 8 6 5 4 4 3 2 2 2 3 4 3 4 4 4 5 7 9 11 10 10 11 12 12 12 13 13
5 5 7 9 14 15 14 11 8 8 8 6 5 5 3 2 2 2 2 2 2 4 3 3 3 4 4 5 8 10 10 10 10 10 10 11 12 13
4 5 5 6 8 9 12 14 12 10 8 7 7 4 3 2 3 3 2 2 2 3 3 3 4 4 4 5 9 10 10 12 12 13 13 13 13 14
4 5 6 5 4 8 9 10 9 8 5 5 6 4 2 2 1 2 2 2 2 3 4 3 3 3 3 3 8 11 11 11 12 12 13 15 15 15
4 4 5 6 7 11 11 11 10 8 11 13 12 10 10 8 3 2 2 2 2 3 4 3 3 3 2 2 4 10 11 12 12 12 13 15 17 15
4 5 6 7 8 9 9 10 10 6 6 8 9 10 9 10 11 5 2 2 2 2 4 3 3 3 3 2 3 5 7 9 11 11 13 14 15 12
5 4 4 9 11 11 9 8 9 7 7 8 7 7 6 7 7 6 5 3 3 3 3 2 2 2 2 3 3 4 5 6 7 8 10 13 14 12
6 4 5 10 11 11 9 11 12 8 6 7 6 5 5 5 4 5 6 7 6 4 4 3 2 2 2 2 3 4 4 6 7 7 8 10 11 11
6 9 10 11 11 8 10 11 8 6 6 6 5 3 2 2 2 2 4 4 5 6 6 5 3 2 2 2 3 4 4 5 7 7 7 8 9 9
8 10 11 10 8 8 7 6 5 5 5 5 4 3 2 3 3 3 3 4 5 5 6 7 6 3 3 3 3 4 4 5 6 6 6 6 7 8
10 6 4 4 4 4 4 4 4 4 4 3 4 4 3 3 3 2 2 3 4 4 5 5 4 3 4 4 4 4 4 4 5 5 5 6 8 9
12 8 6 6 6 6 6 4 3 4 4 4 4 4 4 4 3 2 2 3 3 3 3 5 5 3 2 3 4 4 4 4 4 5 5 6 8 9
9 9 8 8 7 7 6 6 5 4 4 4 4 4 4 3 3 2 2 2 2 2 3 3 4 4 3 3 3 5 4 4 5 6 7 6 7 8
8 10 9 8 7 7 7 6 6 6 4 4 4 4 3 3 2 2 2 2 2 1 2 2 3 3 3 3 3 3 5 4 5 7 8 6 6 7
8 9 9 8 8 8 8 8 8 7 6 5 5 5 4 3 2 2 2 3 2 1 2 3 3 5 3 2 2 1 3 4 4 4 6 7 9 9
10 9 8 8 8 8 8 8 8 7 8 6 5 5 4 4 4 4 3 3 2 1 1 2 3 2 1 1 2 3 3 4 4 4 3 5 7 10
10 9 8 9 8 7 8 9 11 8 8 7 6 6 5 4 4 4 4 3 3 2 1 0 1 2 2 2 2 3 4 4 4 4 3 5 6 6
Wind_Direction
236 220 208 206 206 206 198 185 175 173 158 138 94 29 47 73 78 77 71 60 53 50 59 82 90 83 75 66 56 45 36 34 31 18 356 328 310 305
232 216 211 208 206 197 188 176 164 162 137 103 86 48 62 93 89 83 74 61 46 42 59 89 100 90 75 62 52 42 33 26 18 7 347 325 312 302
322 202 179 162 153 141 133 130 143 143 123 105 75 59 85 92 85 77 67 60 49 46 59 78 90 89 81 71 61 53 45 37 27 15 358 337 319 307
30 72 97 104 101 105 106 108 118 119 126 123 93 69 72 74 82 73 60 58 53 51 60 71 81 85 81 72 64 55 47 38 30 20 7 353 336 321
43 49 60 75 73 84 103 112 108 105 104 110 96 68 71 64 75 66 56 44 46 47 53 56 63 74 74 68 60 51 41 32 24 15 6 355 343 330
50 52 60 78 95 109 117 121 117 110 105 105 99 81 70 59 71 69 64 37 35 28 37 43 46 63 65 60 49 37 27 18 12 8 4 355 343 330
59 58 78 106 114 117 121 120 119 115 110 106 101 89 70 62 66 54 77 61 54 24 12 32 28 41 44 41 35 22 14 7 2 0 358 351 341 331
89 75 80 86 88 86 86 87 101 116 116 108 103 101 94 87 87 81 82 71 45 10 4 16 24 35 34 39 32 30 22 12 3 355 349 344 338 330
119 109 94 80 88 93 81 73 67 78 112 125 122 129 134 147 133 116 106 94 78 358 357 14 11 21 21 28 29 35 32 25 19 11 0 349 337 327
95 116 113 93 94 106 94 80 67 58 80 95 110 110 110 146 155 131 123 100 43 33 18 16 354 357 351 3 22 29 30 24 19 18 13 2 347 332
63 80 104 95 100 109 104 98 87 76 76 80 80 75 67 56 66 105 98 100 73 25 18 9 349 334 323 332 359 11 13 13 9 9 8 5 355 346
79 69 87 103 103 105 109 112 106 96 94 83 67 54 52 47 44 51 75 100 90 47 15 356 352 345 343 354 349 1 4 359 357 1 3 1 359 5
127 112 97 105 99 96 98 104 118 115 98 92 82 68 57 50 45 45 47 73 86 58 357 334 349 3 353 336 343 353 7 2 358 2 2 359 1 13
146 134 116 107 101 102 100 110 110 101 94 88 81 66 56 48 45 55 63 67 70 65 5 7 38 15 9 24 356 340 348 10 5 2 5 3 11 16
144 140 130 114 100 97 104 109 106 101 97 94 91 78 55 27 35 56 49 58 66 55 38 24 28 50 51 33 4 356 350 356 4 5 10 19 23 16
129 128 120 108 101 102 95 86 85 98 110 110 106 96 78 68 56 57 55 46 45 23 23 29 24 28 50 44 35 28 14 0 358 3 14 26 24 20
139 126 122 123 119 115 106 102 104 111 108 116 122 116 99 85 70 62 69 69 59 21 0 1 11 45 53 34 33 28 20 20 5 353 2 16 17 10
143 150 155 159 158 155 148 137 133 130 129 136 134 128 119 108 96 78 78 85 76 36 6 357 355 19 65 80 38 10 14 4 351 355 358 358 6 7
151 165 169 173 171 167 165 161 159 153 149 151 143 139 133 124 119 115 119 116 100 57 20 7 11 15 12 10 30 35 0 346 347 358 1 355 354 355
171 174 177 178 175 176 176 171 160 156 158 161 154 150 149 146 145 143 146 140 119 78 35 24 18 4 338 331 326 342 7 352 346 350 353 352 349 342
181 180 178 178 181 183 183 177 171 170 170 169 169 166 165 163 163 160 150 140 132 100 38 16 347 325 281 261 268 320 1 8 3 342 341 348 350 354
181 180 179 179 180 181 179 176 175 175 176 180 180 178 178 179 176 174 173 168 164 145 27 358 348 1 38 5 349 337 335 343 348 352 18 19 357 356
181 181 180 181 180 177 176 180 183 184 185 188 187 186 184 183 180 177 180 181 173 180 213 319 21 33 32 9 342 332 336 340 339 331 328 351 351 341